Aeroporto :
LOGIN :

Iscrizione | Disclaimer

   EN    FR    IT 

 










Sommario :    VFR   VFR Marginale   IFR   IFR Intensivo   IFR Molto Intensivo
Visibilità : 
Base nubi : 
>= 8 km
>= 3000ft
5 / 8 km
1000 / 3000 ft
1500m / 5 km
500 / 1000 ft
800 / 1500m
200 / 500 ft
< 800m
< 200 ft
Simboli :   Temporali  Nebbia  Neve Forte  Precipitazioni Forti  Vento > 20 kt
SIGMETs :   Varie  Temporali  Ghiacco  Turbolenza  Onda orograficha  Ceneri Vulcaniche






- Altitudine del aeroporto : 148 ft
- Codice IATA : KHE


UKOH - Chernobayevka

ULTIMO METAR :
  • 011400Z 04005MPS 9999 BKN026CB 04/01 Q1021 R03/CLRD65 NOSIG

METARs OBSOLETI :
  • 011330Z 03004MPS 9999 BKN027CB 04/01 Q1021 R03/CLRD65 NOSIG
  • 011300Z 04004MPS 9999 BKN029CB 04/01 Q1021 R03/CLRD65 NOSIG
  • 011230Z 06005MPS 9999 BKN023CB 04/02 Q1021 R03/CLRD65 NOSIG
  • 011200Z 03005MPS 9999 BKN027CB 04/02 Q1021 R03/CLRD65 NOSIG

TAF TAF UKOH
Valido dal 01 a 15 ore il 02 a 00 ore UTC


011402Z 0115/0124 05006MPS 9999 BKN007 BKN020CB TX04/0115Z TN02/0124Z
TEMPO 0115/0124 2100 BR BKN005



MetMap, La meteo Aeronautica in un colpo d'occhio ! - Copyright ORBIFLY Dicembre 2007 - Disclaimer

ORBIFLY MET'MAP TEAM :

Programmazione e sviluppo : Alexandra Zaïnal
Concezione : Baudouin d'Aumeries
Aiuto per la programmazione : Marc-Olivier Méhu
Supporto tecnico e logistico : Manuel Goepfert
Aiuto per la traduzione : Arnaldo La Scala

Contatto : metmap@orbifly.com




FONTI E CREDITI :

   NOAA